QPF
0.00 0.00 0.00 0.01 0.02 0.01 0.01 0.00 0.01 0.01 0.01 0.01 0.01 0.01 0.01 0.01 0.01 0.01 0.02 0.02 0.01 0.01 0.01 0.01 0.01 0.02 0.02 0.01 0.02 0.03 0.04 0.03 0.03 0.02 0.02 0.01 0.02 0.02 0.01 0.01 0.01 0.01 0.02 0.01 0.01 0.01 0.01 0.00 0.00
0.00 0.01 0.01 0.01 0.02 0.01 0.01 0.01 0.01 0.01 0.02 0.01 0.01 0.01 0.01 0.01 0.00 0.01 0.01 0.02 0.02 0.01 0.01 0.01 0.01 0.01 0.01 0.02 0.02 0.04 0.04 0.04 0.03 0.03 0.02 0.02 0.02 0.02 0.01 0.01 0.01 0.01 0.02 0.02 0.01 0.01 0.01 0.00 0.00
0.01 0.01 0.02 0.02 0.01 0.01 0.01 0.02 0.02 0.01 0.01 0.01 0.01 0.01 0.01 0.00 0.00 0.01 0.01 0.02 0.02 0.01 0.01 0.01 0.01 0.02 0.01 0.01 0.02 0.03 0.04 0.04 0.04 0.03 0.02 0.02 0.02 0.01 0.01 0.01 0.01 0.01 0.02 0.02 0.01 0.01 0.01 0.00 0.00
0.01 0.01 0.02 0.03 0.02 0.01 0.01 0.01 0.01 0.01 0.01 0.01 0.01 0.01 0.00 0.00 0.00 0.01 0.01 0.01 0.03 0.02 0.01 0.01 0.01 0.01 0.01 0.01 0.02 0.03 0.03 0.03 0.04 0.03 0.03 0.02 0.02 0.01 0.01 0.01 0.01 0.01 0.01 0.01 0.01 0.01 0.01 0.01 0.00
0.01 0.02 0.02 0.03 0.02 0.01 0.02 0.02 0.01 0.01 0.01 0.01 0.01 0.02 0.02 0.01 0.00 0.00 0.00 0.01 0.02 0.03 0.02 0.02 0.02 0.02 0.01 0.01 0.01 0.01 0.02 0.02 0.02 0.02 0.02 0.03 0.02 0.01 0.01 0.01 0.01 0.01 0.01 0.01 0.01 0.01 0.01 0.01 0.01
0.02 0.02 0.02 0.02 0.02 0.01 0.02 0.02 0.02 0.01 0.01 0.01 0.01 0.01 0.01 0.01 0.00 0.01 0.01 0.01 0.02 0.03 0.03 0.03 0.03 0.02 0.02 0.01 0.01 0.01 0.01 0.01 0.01 0.01 0.02 0.03 0.03 0.02 0.02 0.01 0.01 0.01 0.01 0.01 0.01 0.01 0.01 0.01 0.01
0.01 0.01 0.02 0.02 0.02 0.01 0.01 0.02 0.02 0.02 0.01 0.01 0.02 0.02 0.01 0.01 0.01 0.01 0.01 0.02 0.03 0.03 0.04 0.04 0.04 0.03 0.02 0.01 0.01 0.01 0.01 0.01 0.01 0.01 0.01 0.02 0.03 0.02 0.02 0.02 0.01 0.01 0.01 0.01 0.01 0.01 0.00 0.00 0.01
0.02 0.01 0.01 0.01 0.01 0.01 0.01 0.02 0.02 0.02 0.02 0.02 0.03 0.03 0.02 0.01 0.01 0.01 0.01 0.02 0.02 0.03 0.03 0.05 0.06 0.05 0.03 0.02 0.02 0.01 0.01 0.01 0.01 0.01 0.01 0.02 0.03 0.02 0.01 0.01 0.02 0.02 0.02 0.02 0.01 0.01 0.01 0.00 0.00
0.02 0.01 0.01 0.01 0.01 0.01 0.01 0.02 0.03 0.02 0.02 0.02 0.02 0.03 0.02 0.01 0.01 0.01 0.02 0.02 0.03 0.03 0.03 0.04 0.05 0.06 0.05 0.03 0.02 0.02 0.02 0.01 0.01 0.00 0.01 0.01 0.02 0.02 0.01 0.01 0.01 0.02 0.02 0.02 0.02 0.02 0.01 0.01 0.00
0.02 0.01 0.01 0.01 0.00 0.01 0.01 0.02 0.02 0.03 0.02 0.02 0.03 0.03 0.04 0.02 0.01 0.02 0.02 0.02 0.02 0.02 0.02 0.03 0.06 0.07 0.06 0.03 0.01 0.02 0.02 0.02 0.01 0.01 0.01 0.01 0.02 0.02 0.01 0.01 0.01 0.01 0.01 0.02 0.02 0.02 0.01 0.01 0.01
0.01 0.00 0.00 0.00 0.00 0.01 0.01 0.03 0.03 0.03 0.02 0.02 0.02 0.02 0.03 0.03 0.02 0.01 0.01 0.01 0.01 0.02 0.03 0.04 0.06 0.08 0.08 0.07 0.03 0.02 0.02 0.02 0.02 0.02 0.02 0.02 0.02 0.02 0.01 0.01 0.01 0.02 0.01 0.01 0.01 0.01 0.01 0.01 0.01
0.01 0.00 0.00 0.00 0.00 0.01 0.02 0.03 0.04 0.03 0.03 0.02 0.02 0.03 0.04 0.04 0.03 0.02 0.01 0.01 0.02 0.02 0.03 0.05 0.06 0.08 0.09 0.09 0.06 0.04 0.02 0.02 0.02 0.02 0.02 0.02 0.02 0.03 0.02 0.02 0.02 0.03 0.03 0.02 0.01 0.01 0.01 0.01 0.01
0.02 0.01 0.01 0.00 0.01 0.02 0.04 0.04 0.05 0.04 0.02 0.02 0.03 0.02 0.02 0.03 0.03 0.03 0.03 0.03 0.03 0.02 0.03 0.04 0.06 0.08 0.09 0.09 0.07 0.04 0.02 0.02 0.02 0.02 0.02 0.02 0.02 0.03 0.02 0.03 0.03 0.04 0.05 0.02 0.01 0.01 0.00 0.00 0.01
0.02 0.02 0.01 0.01 0.01 0.02 0.04 0.05 0.06 0.06 0.03 0.03 0.03 0.03 0.03 0.03 0.03 0.03 0.05 0.05 0.04 0.03 0.03 0.04 0.07 0.08 0.10 0.11 0.08 0.04 0.02 0.02 0.01 0.01 0.01 0.01 0.02 0.04 0.04 0.03 0.03 0.04 0.03 0.01 0.01 0.01 0.00 0.00 0.00
0.02 0.03 0.03 0.02 0.02 0.03 0.05 0.07 0.06 0.06 0.05 0.03 0.03 0.02 0.02 0.03 0.04 0.04 0.05 0.06 0.04 0.03 0.03 0.03 0.06 0.09 0.11 0.10 0.08 0.05 0.04 0.03 0.02 0.02 0.02 0.02 0.02 0.03 0.05 0.03 0.03 0.04 0.03 0.02 0.02 0.01 0.00 0.00 0.00
0.04 0.04 0.05 0.04 0.02 0.03 0.05 0.06 0.05 0.06 0.05 0.03 0.03 0.03 0.02 0.03 0.03 0.05 0.06 0.06 0.06 0.04 0.03 0.03 0.06 0.09 0.10 0.09 0.08 0.05 0.05 0.04 0.03 0.03 0.03 0.04 0.04 0.04 0.04 0.03 0.03 0.03 0.03 0.04 0.05 0.03 0.01 0.00 0.00
0.07 0.06 0.06 0.04 0.03 0.03 0.05 0.05 0.04 0.06 0.06 0.03 0.02 0.02 0.03 0.03 0.03 0.05 0.06 0.05 0.06 0.07 0.05 0.04 0.06 0.09 0.09 0.06 0.06 0.04 0.04 0.04 0.03 0.03 0.03 0.03 0.04 0.03 0.02 0.02 0.02 0.03 0.04 0.05 0.06 0.06 0.04 0.03 0.02
0.06 0.04 0.03 0.03 0.03 0.03 0.03 0.03 0.05 0.07 0.06 0.03 0.02 0.02 0.02 0.03 0.02 0.04 0.05 0.05 0.04 0.06 0.07 0.06 0.06 0.06 0.07 0.05 0.03 0.03 0.03 0.04 0.04 0.04 0.05 0.03 0.02 0.03 0.03 0.02 0.02 0.03 0.04 0.06 0.08 0.09 0.07 0.05 0.04
0.03 0.02 0.02 0.02 0.03 0.04 0.03 0.02 0.03 0.05 0.06 0.04 0.02 0.02 0.02 0.02 0.02 0.02 0.04 0.04 0.04 0.04 0.06 0.06 0.04 0.03 0.04 0.03 0.02 0.02 0.02 0.03 0.04 0.04 0.05 0.06 0.05 0.04 0.03 0.03 0.03 0.04 0.05 0.05 0.06 0.08 0.08 0.06 0.04
0.02 0.03 0.02 0.02 0.03 0.03 0.02 0.02 0.03 0.04 0.04 0.04 0.03 0.02 0.02 0.01 0.01 0.01 0.02 0.03 0.03 0.03 0.04 0.06 0.05 0.04 0.02 0.02 0.02 0.02 0.02 0.02 0.01 0.02 0.03 0.04 0.05 0.04 0.04 0.04 0.04 0.04 0.05 0.07 0.06 0.06 0.05 0.05 0.04
0.02 0.02 0.02 0.02 0.02 0.02 0.02 0.03 0.03 0.03 0.03 0.03 0.04 0.04 0.03 0.02 0.01 0.01 0.01 0.01 0.02 0.03 0.03 0.05 0.06 0.05 0.03 0.02 0.02 0.02 0.01 0.01 0.01 0.01 0.01 0.02 0.03 0.03 0.03 0.03 0.04 0.05 0.06 0.07 0.06 0.07 0.07 0.06 0.06
0.03 0.01 0.02 0.01 0.03 0.03 0.02 0.03 0.02 0.02 0.02 0.02 0.03 0.03 0.03 0.02 0.02 0.01 0.01 0.01 0.02 0.02 0.03 0.04 0.05 0.06 0.06 0.04 0.03 0.02 0.01 0.01 0.01 0.01 0.02 0.02 0.01 0.02 0.02 0.03 0.04 0.04 0.05 0.07 0.08 0.07 0.06 0.05 0.05
0.02 0.01 0.02 0.02 0.02 0.04 0.03 0.02 0.02 0.01 0.02 0.01 0.01 0.01 0.02 0.02 0.02 0.01 0.02 0.01 0.02 0.03 0.03 0.03 0.04 0.04 0.05 0.07 0.06 0.04 0.03 0.02 0.02 0.02 0.01 0.01 0.01 0.01 0.01 0.02 0.03 0.04 0.04 0.04 0.05 0.06 0.04 0.04 0.03
0.02 0.03 0.04 0.04 0.05 0.05 0.03 0.02 0.01 0.01 0.01 0.01 0.00 0.00 0.01 0.01 0.01 0.01 0.01 0.02 0.02 0.02 0.02 0.02 0.03 0.03 0.03 0.04 0.05 0.06 0.07 0.05 0.04 0.04 0.02 0.01 0.01 0.00 0.00 0.01 0.01 0.02 0.03 0.03 0.04 0.05 0.04 0.03 0.03
0.05 0.04 0.06 0.08 0.07 0.04 0.01 0.01 0.01 0.01 0.01 0.00 0.00 0.00 0.00 0.00 0.00 0.01 0.01 0.01 0.02 0.02 0.02 0.02 0.02 0.02 0.02 0.03 0.04 0.04 0.05 0.06 0.05 0.06 0.06 0.05 0.03 0.02 0.01 0.01 0.01 0.01 0.01 0.02 0.02 0.03 0.04 0.03 0.02
0.05 0.05 0.04 0.04 0.03 0.01 0.00 0.01 0.01 0.01 0.00 0.00 0.00 0.00 0.00 0.00 0.00 0.00 0.00 0.00 0.01 0.01 0.02 0.02 0.02 0.02 0.02 0.01 0.01 0.02 0.02 0.02 0.03 0.04 0.05 0.05 0.04 0.02 0.01 0.01 0.01 0.01 0.02 0.02 0.02 0.03 0.04 0.04 0.03
0.03 0.04 0.03 0.02 0.01 0.00 0.00 0.00 0.00 0.00 0.00 0.00 0.00 0.00 0.00 0.00 0.00 0.00 0.00 0.00 0.00 0.01 0.01 0.02 0.02 0.02 0.02 0.02 0.01 0.01 0.02 0.02 0.02 0.02 0.02 0.03 0.04 0.03 0.02 0.01 0.01 0.01 0.01 0.02 0.02 0.03 0.05 0.06 0.05
0.01 0.02 0.02 0.02 0.01 0.01 0.01 0.00 0.00 0.00 0.00 0.00 0.00 0.00 0.00 0.00 0.00 0.00 0.00 0.00 0.00 0.01 0.01 0.01 0.02 0.02 0.02 0.02 0.02 0.01 0.01 0.02 0.02 0.02 0.02 0.02 0.03 0.04 0.05 0.04 0.03 0.03 0.03 0.02 0.03 0.04 0.06 0.07 0.07
0.01 0.02 0.02 0.02 0.01 0.01 0.02 0.00 0.00 0.00 0.00 0.00 0.00 0.00 0.00 0.00 0.00 0.00 0.00 0.00 0.00 0.01 0.01 0.01 0.01 0.02 0.03 0.02 0.01 0.01 0.01 0.01 0.01 0.02 0.02 0.01 0.02 0.02 0.03 0.05 0.05 0.05 0.05 0.04 0.04 0.04 0.05 0.08 0.09
0.01 0.01 0.01 0.01 0.01 0.00 0.00 0.00 0.00 0.00 0.00 0.00 0.00 0.00 0.00 0.00 0.00 0.00 0.00 0.00 0.00 0.00 0.01 0.01 0.01 0.02 0.02 0.01 0.01 0.01 0.01 0.01 0.01 0.01 0.01 0.01 0.02 0.02 0.02 0.03 0.03 0.04 0.04 0.04 0.05 0.05 0.05 0.06 0.07
MSLP
1016.66 1017.43 1018.62 1020.15 1021.90 1023.70 1025.37 1026.76 1027.78 1028.38 1028.63 1028.66 1028.60 1028.62 1028.82 1029.24 1029.87 1030.59 1031.28 1031.81 1032.06 1031.99 1031.62 1031.02 1030.31 1029.63 1029.04 1028.62 1028.34 1028.18 1028.05 1027.91 1027.69 1027.40 1027.04 1026.67 1026.33 1026.04 1025.82 1025.65 1025.49 1025.31 1025.07 1024.76 1024.39 1023.99 1023.60 1023.24 1022.93
1017.33 1018.36 1019.77 1021.46 1023.26 1025.00 1026.54 1027.74 1028.55 1028.98 1029.11 1029.09 1029.05 1029.13 1029.41 1029.90 1030.56 1031.26 1031.89 1032.32 1032.46 1032.30 1031.86 1031.24 1030.55 1029.91 1029.39 1029.03 1028.81 1028.70 1028.61 1028.49 1028.31 1028.04 1027.72 1027.38 1027.06 1026.78 1026.55 1026.35 1026.14 1025.90 1025.60 1025.24 1024.83 1024.41 1024.01 1023.65 1023.36
1018.08 1019.33 1020.89 1022.64 1024.41 1026.04 1027.40 1028.40 1029.03 1029.32 1029.40 1029.39 1029.43 1029.61 1029.98 1030.54 1031.20 1031.87 1032.42 1032.74 1032.79 1032.56 1032.09 1031.49 1030.85 1030.28 1029.83 1029.53 1029.36 1029.26 1029.18 1029.07 1028.88 1028.62 1028.32 1028.00 1027.69 1027.41 1027.16 1026.93 1026.67 1026.38 1026.03 1025.62 1025.19 1024.76 1024.36 1024.03 1023.78
1018.87 1020.27 1021.91 1023.64 1025.30 1026.76 1027.91 1028.72 1029.20 1029.42 1029.49 1029.55 1029.69 1029.99 1030.46 1031.06 1031.72 1032.33 1032.79 1033.02 1033.00 1032.74 1032.29 1031.75 1031.21 1030.73 1030.37 1030.13 1029.98 1029.88 1029.77 1029.62 1029.41 1029.13 1028.82 1028.50 1028.20 1027.93 1027.67 1027.41 1027.12 1026.79 1026.40 1025.97 1025.53 1025.11 1024.74 1024.46 1024.25
1019.68 1021.16 1022.79 1024.43 1025.92 1027.17 1028.11 1028.74 1029.11 1029.30 1029.42 1029.59 1029.86 1030.28 1030.83 1031.46 1032.08 1032.61 1032.98 1033.13 1033.06 1032.82 1032.44 1032.01 1031.59 1031.24 1030.98 1030.79 1030.65 1030.52 1030.36 1030.15 1029.89 1029.58 1029.26 1028.94 1028.65 1028.38 1028.12 1027.86 1027.55 1027.20 1026.80 1026.37 1025.94 1025.55 1025.22 1024.98 1024.82
1020.52 1022.01 1023.56 1025.04 1026.32 1027.34 1028.07 1028.55 1028.85 1029.06 1029.27 1029.56 1029.97 1030.49 1031.09 1031.71 1032.27 1032.71 1032.98 1033.07 1032.99 1032.79 1032.52 1032.23 1031.98 1031.77 1031.61 1031.47 1031.33 1031.16 1030.94 1030.66 1030.34 1030.00 1029.67 1029.36 1029.08 1028.83 1028.59 1028.34 1028.04 1027.69 1027.30 1026.88 1026.48 1026.11 1025.82 1025.62 1025.50
1021.41 1022.85 1024.26 1025.54 1026.59 1027.38 1027.92 1028.28 1028.54 1028.80 1029.11 1029.54 1030.07 1030.67 1031.30 1031.88 1032.35 1032.68 1032.86 1032.89 1032.82 1032.68 1032.54 1032.41 1032.32 1032.25 1032.19 1032.10 1031.97 1031.76 1031.48 1031.15 1030.79 1030.44 1030.11 1029.82 1029.58 1029.36 1029.14 1028.91 1028.62 1028.29 1027.92 1027.53 1027.15 1026.82 1026.56 1026.38 1026.28
1022.35 1023.70 1024.96 1026.02 1026.83 1027.40 1027.78 1028.05 1028.30 1028.62 1029.04 1029.58 1030.21 1030.87 1031.49 1032.00 1032.38 1032.59 1032.67 1032.66 1032.60 1032.54 1032.51 1032.53 1032.59 1032.64 1032.67 1032.62 1032.49 1032.27 1031.97 1031.61 1031.25 1030.90 1030.60 1030.36 1030.16 1029.98 1029.79 1029.58 1029.31 1028.99 1028.64 1028.27 1027.91 1027.60 1027.36 1027.19 1027.09
1023.36 1024.60 1025.67 1026.52 1027.10 1027.48 1027.72 1027.93 1028.19 1028.57 1029.09 1029.73 1030.43 1031.10 1031.69 1032.13 1032.39 1032.50 1032.50 1032.45 1032.40 1032.40 1032.47 1032.61 1032.77 1032.92 1033.01 1033.00 1032.88 1032.66 1032.35 1032.02 1031.69 1031.39 1031.15 1030.96 1030.81 1030.67 1030.51 1030.31 1030.05 1029.74 1029.39 1029.04 1028.70 1028.40 1028.16 1027.99 1027.87
1024.38 1025.50 1026.41 1027.05 1027.44 1027.66 1027.79 1027.96 1028.23 1028.67 1029.26 1029.97 1030.70 1031.37 1031.90 1032.26 1032.43 1032.45 1032.38 1032.30 1032.26 1032.30 1032.44 1032.64 1032.87 1033.07 1033.19 1033.20 1033.10 1032.89 1032.63 1032.34 1032.08 1031.86 1031.70 1031.58 1031.48 1031.37 1031.22 1031.02 1030.76 1030.44 1030.10 1029.75 1029.42 1029.14 1028.90 1028.71 1028.57
1025.34 1026.35 1027.10 1027.57 1027.81 1027.91 1027.97 1028.10 1028.39 1028.86 1029.50 1030.24 1030.97 1031.62 1032.10 1032.38 1032.48 1032.43 1032.32 1032.22 1032.18 1032.25 1032.42 1032.65 1032.90 1033.10 1033.22 1033.24 1033.14 1032.97 1032.76 1032.56 1032.38 1032.26 1032.19 1032.14 1032.08 1031.99 1031.85 1031.64 1031.36 1031.04 1030.70 1030.35 1030.03 1029.75 1029.51 1029.31 1029.15
1026.18 1027.08 1027.69 1028.03 1028.15 1028.16 1028.18 1028.30 1028.60 1029.09 1029.75 1030.48 1031.19 1031.79 1032.21 1032.44 1032.48 1032.40 1032.28 1032.18 1032.16 1032.24 1032.41 1032.63 1032.86 1033.04 1033.13 1033.13 1033.05 1032.91 1032.77 1032.65 1032.57 1032.54 1032.55 1032.56 1032.54 1032.46 1032.31 1032.09 1031.80 1031.47 1031.13 1030.80 1030.50 1030.24 1030.00 1029.80 1029.62
1026.82 1027.61 1028.11 1028.34 1028.39 1028.36 1028.36 1028.48 1028.79 1029.29 1029.93 1030.62 1031.28 1031.82 1032.19 1032.37 1032.39 1032.31 1032.20 1032.12 1032.13 1032.22 1032.38 1032.58 1032.76 1032.89 1032.94 1032.92 1032.84 1032.74 1032.66 1032.62 1032.63 1032.68 1032.75 1032.81 1032.81 1032.73 1032.57 1032.34 1032.05 1031.73 1031.42 1031.12 1030.85 1030.61 1030.40 1030.20 1030.02
1027.23 1027.91 1028.31 1028.48 1028.50 1028.46 1028.47 1028.61 1028.92 1029.40 1030.00 1030.62 1031.21 1031.67 1031.98 1032.13 1032.14 1032.08 1032.01 1031.98 1032.01 1032.12 1032.28 1032.45 1032.59 1032.67 1032.69 1032.65 1032.57 1032.50 1032.47 1032.49 1032.57 1032.67 1032.78 1032.86 1032.87 1032.79 1032.64 1032.41 1032.14 1031.86 1031.59 1031.35 1031.13 1030.94 1030.75 1030.57 1030.38
1027.46 1028.02 1028.34 1028.47 1028.48 1028.46 1028.51 1028.67 1028.98 1029.42 1029.95 1030.49 1030.97 1031.35 1031.58 1031.70 1031.71 1031.68 1031.65 1031.67 1031.75 1031.89 1032.05 1032.21 1032.33 1032.39 1032.39 1032.34 1032.29 1032.25 1032.25 1032.32 1032.43 1032.56 1032.68 1032.76 1032.77 1032.69 1032.55 1032.35 1032.13 1031.91 1031.71 1031.54 1031.39 1031.25 1031.11 1030.94 1030.76
1027.58 1028.03 1028.28 1028.38 1028.41 1028.43 1028.52 1028.70 1029.00 1029.39 1029.82 1030.25 1030.61 1030.87 1031.02 1031.09 1031.09 1031.09 1031.10 1031.18 1031.30 1031.48 1031.66 1031.83 1031.96 1032.03 1032.04 1032.02 1032.00 1032.00 1032.04 1032.12 1032.25 1032.38 1032.49 1032.55 1032.55 1032.49 1032.38 1032.23 1032.07 1031.94 1031.83 1031.75 1031.68 1031.60 1031.49 1031.35 1031.18
1027.71 1028.04 1028.22 1028.32 1028.37 1028.44 1028.56 1028.76 1029.02 1029.34 1029.66 1029.94 1030.16 1030.29 1030.35 1030.35 1030.33 1030.34 1030.38 1030.50 1030.67 1030.88 1031.10 1031.30 1031.46 1031.57 1031.64 1031.67 1031.70 1031.75 1031.83 1031.93 1032.05 1032.16 1032.25 1032.30 1032.29 1032.24 1032.17 1032.09 1032.02 1031.99 1031.98 1031.98 1031.99 1031.97 1031.90 1031.78 1031.60
1027.94 1028.16 1028.29 1028.37 1028.45 1028.55 1028.69 1028.87 1029.08 1029.30 1029.48 1029.60 1029.66 1029.66 1029.61 1029.54 1029.48 1029.48 1029.54 1029.67 1029.87 1030.11 1030.36 1030.61 1030.83 1031.01 1031.15 1031.27 1031.38 1031.50 1031.61 1031.73 1031.84 1031.93 1031.99 1032.01 1032.01 1031.98 1031.96 1031.96 1031.99 1032.05 1032.13 1032.22 1032.29 1032.31 1032.28 1032.17 1032.01
1028.34 1028.46 1028.54 1028.61 1028.69 1028.80 1028.93 1029.07 1029.19 1029.26 1029.29 1029.25 1029.14 1029.00 1028.84 1028.70 1028.60 1028.58 1028.63 1028.76 1028.97 1029.22 1029.50 1029.79 1030.07 1030.33 1030.57 1030.79 1030.99 1031.18 1031.34 1031.48 1031.58 1031.65 1031.68 1031.70 1031.70 1031.71 1031.75 1031.83 1031.94 1032.09 1032.26 1032.41 1032.52 1032.58 1032.57 1032.48 1032.33
1028.90 1028.94 1028.98 1029.04 1029.11 1029.20 1029.27 1029.31 1029.30 1029.21 1029.06 1028.84 1028.58 1028.31 1028.07 1027.86 1027.73 1027.68 1027.72 1027.84 1028.03 1028.27 1028.56 1028.87 1029.20 1029.53 1029.87 1030.19 1030.49 1030.75 1030.97 1031.13 1031.23 1031.29 1031.31 1031.32 1031.34 1031.39 1031.49 1031.64 1031.84 1032.06 1032.29 1032.48 1032.63 1032.71 1032.71 1032.65 1032.53
1029.59 1029.58 1029.59 1029.62 1029.66 1029.68 1029.65 1029.55 1029.35 1029.07 1028.72 1028.34 1027.94 1027.57 1027.27 1027.04 1026.89 1026.84 1026.87 1026.96 1027.12 1027.33 1027.59 1027.90 1028.25 1028.64 1029.05 1029.45 1029.83 1030.17 1030.44 1030.63 1030.74 1030.80 1030.82 1030.83 1030.88 1030.98 1031.14 1031.36 1031.63 1031.91 1032.17 1032.40 1032.56 1032.64 1032.66 1032.63 1032.56
1030.30 1030.28 1030.28 1030.29 1030.27 1030.19 1030.01 1029.71 1029.30 1028.80 1028.25 1027.69 1027.18 1026.75 1026.42 1026.21 1026.09 1026.06 1026.09 1026.17 1026.29 1026.45 1026.66 1026.94 1027.28 1027.68 1028.12 1028.58 1029.02 1029.41 1029.73 1029.94 1030.07 1030.14 1030.17 1030.21 1030.29 1030.43 1030.66 1030.94 1031.26 1031.59 1031.88 1032.12 1032.29 1032.38 1032.42 1032.43 1032.42
1030.94 1030.95 1030.96 1030.95 1030.86 1030.65 1030.28 1029.76 1029.10 1028.36 1027.60 1026.89 1026.29 1025.83 1025.52 1025.36 1025.31 1025.33 1025.39 1025.46 1025.55 1025.66 1025.80 1026.01 1026.31 1026.68 1027.13 1027.61 1028.08 1028.50 1028.84 1029.09 1029.23 1029.31 1029.36 1029.42 1029.54 1029.74 1030.02 1030.36 1030.74 1031.10 1031.42 1031.67 1031.84 1031.95 1032.01 1032.06 1032.12
1031.46 1031.52 1031.57 1031.54 1031.38 1031.03 1030.47 1029.70 1028.79 1027.80 1026.84 1025.99 1025.31 1024.85 1024.59 1024.51 1024.55 1024.65 1024.76 1024.84 1024.90 1024.94 1025.02 1025.15 1025.37 1025.70 1026.11 1026.58 1027.05 1027.49 1027.84 1028.09 1028.25 1028.34 1028.41 1028.51 1028.66 1028.91 1029.24 1029.64 1030.06 1030.47 1030.81 1031.08 1031.26 1031.39 1031.48 1031.57 1031.70
1031.83 1031.98 1032.08 1032.06 1031.83 1031.34 1030.58 1029.58 1028.42 1027.20 1026.05 1025.07 1024.33 1023.87 1023.67 1023.68 1023.82 1024.01 1024.18 1024.28 1024.32 1024.31 1024.30 1024.35 1024.49 1024.75 1025.11 1025.55 1026.00 1026.43 1026.78 1027.03 1027.20 1027.30 1027.38 1027.50 1027.69 1027.98 1028.36 1028.81 1029.27 1029.72 1030.10 1030.39 1030.60 1030.74 1030.86 1031.00 1031.18
1032.07 1032.32 1032.50 1032.50 1032.22 1031.62 1030.69 1029.48 1028.10 1026.67 1025.35 1024.25 1023.46 1023.00 1022.85 1022.94 1023.16 1023.43 1023.64 1023.76 1023.78 1023.73 1023.65 1023.62 1023.69 1023.87 1024.18 1024.57 1024.99 1025.39 1025.73 1025.98 1026.13 1026.23 1026.33 1026.46 1026.67 1026.99 1027.41 1027.90 1028.41 1028.89 1029.31 1029.64 1029.87 1030.05 1030.19 1030.36 1030.58
1032.22 1032.59 1032.85 1032.88 1032.58 1031.90 1030.84 1029.47 1027.91 1026.32 1024.86 1023.67 1022.83 1022.36 1022.23 1022.35 1022.63 1022.93 1023.16 1023.28 1023.28 1023.18 1023.05 1022.95 1022.95 1023.08 1023.33 1023.67 1024.06 1024.44 1024.76 1024.99 1025.13 1025.22 1025.30 1025.44 1025.66 1025.99 1026.43 1026.94 1027.49 1028.02 1028.47 1028.84 1029.11 1029.31 1029.49 1029.67 1029.91
1032.34 1032.80 1033.13 1033.20 1032.90 1032.17 1031.04 1029.57 1027.91 1026.22 1024.67 1023.40 1022.51 1022.01 1021.86 1021.98 1022.25 1022.54 1022.76 1022.85 1022.81 1022.66 1022.48 1022.33 1022.28 1022.37 1022.58 1022.89 1023.25 1023.60 1023.89 1024.10 1024.22 1024.29 1024.36 1024.47 1024.68 1025.01 1025.45 1025.98 1026.55 1027.10 1027.60 1028.00 1028.30 1028.54 1028.73 1028.92 1029.16
1032.46 1032.98 1033.35 1033.44 1033.14 1032.41 1031.25 1029.76 1028.07 1026.34 1024.77 1023.47 1022.54 1021.99 1021.80 1021.86 1022.07 1022.30 1022.45 1022.48 1022.38 1022.18 1021.95 1021.77 1021.68 1021.74 1021.92 1022.21 1022.55 1022.87 1023.14 1023.32 1023.42 1023.46 1023.50 1023.59 1023.77 1024.07 1024.49 1025.02 1025.58 1026.15 1026.67 1027.10 1027.44 1027.70 1027.90 1028.10 1028.32
1032.58 1033.09 1033.45 1033.53 1033.24 1032.52 1031.39 1029.94 1028.29 1026.61 1025.07 1023.78 1022.84 1022.26 1021.99 1021.96 1022.06 1022.18 1022.22 1022.16 1021.98 1021.73 1021.46 1021.24 1021.14 1021.18 1021.34 1021.61 1021.93 1022.23 1022.48 1022.63 1022.70 1022.71 1022.71 1022.76 1022.90 1023.17 1023.55 1024.05 1024.60 1025.16 1025.68 1026.14 1026.50 1026.78 1027.00 1027.20 1027.41
Thickness
5692 5697 5698 5692 5673 5654 5650 5658 5665 5667 5667 5670 5673 5671 5665 5661 5659 5654 5654 5657 5657 5658 5658 5659 5659 5660 5661 5662 5662 5662 5662 5662 5662 5663 5663 5663 5663 5664 5663 5663 5663 5663 5663 5663 5663 5663 5662 5662 5661
5688 5692 5688 5676 5656 5641 5644 5655 5659 5662 5665 5667 5667 5664 5658 5653 5653 5651 5651 5653 5654 5654 5654 5655 5656 5656 5657 5657 5658 5658 5658 5658 5658 5658 5658 5658 5659 5659 5659 5659 5659 5659 5659 5659 5658 5658 5657 5657 5656
5685 5686 5672 5657 5643 5639 5645 5653 5656 5660 5663 5662 5656 5653 5651 5647 5647 5646 5647 5649 5650 5650 5650 5650 5651 5652 5652 5653 5653 5653 5653 5653 5653 5654 5654 5654 5654 5654 5654 5654 5654 5654 5654 5654 5653 5653 5653 5652 5652
5677 5671 5660 5644 5637 5642 5647 5651 5654 5656 5658 5656 5651 5644 5642 5643 5643 5643 5644 5645 5645 5645 5645 5645 5646 5647 5647 5648 5648 5648 5648 5648 5648 5648 5648 5648 5648 5649 5649 5649 5649 5649 5649 5648 5648 5647 5647 5647 5647
5669 5657 5643 5631 5633 5640 5645 5649 5651 5651 5649 5647 5645 5639 5635 5637 5639 5639 5639 5640 5639 5639 5639 5640 5640 5641 5642 5642 5643 5643 5643 5643 5643 5643 5643 5643 5643 5643 5643 5643 5644 5643 5643 5643 5642 5642 5641 5641 5641
5653 5644 5629 5622 5629 5636 5641 5645 5646 5644 5641 5641 5638 5633 5630 5632 5633 5633 5634 5634 5634 5633 5633 5634 5634 5635 5636 5636 5636 5637 5637 5637 5637 5637 5637 5637 5637 5637 5638 5638 5638 5637 5637 5637 5636 5636 5635 5635 5634
5642 5633 5625 5625 5626 5630 5637 5641 5638 5637 5635 5634 5634 5628 5625 5626 5627 5628 5628 5627 5627 5627 5627 5627 5628 5629 5629 5630 5630 5631 5631 5631 5631 5631 5631 5631 5631 5631 5631 5631 5631 5631 5631 5630 5630 5629 5629 5628 5627
5640 5629 5622 5619 5622 5625 5631 5634 5633 5632 5629 5630 5630 5625 5621 5622 5622 5622 5621 5621 5620 5620 5620 5621 5621 5622 5623 5624 5624 5624 5625 5625 5625 5625 5625 5625 5625 5625 5625 5625 5625 5624 5624 5624 5623 5622 5622 5621 5620
5637 5618 5612 5617 5620 5622 5626 5626 5625 5627 5625 5623 5622 5622 5622 5619 5616 5615 5614 5613 5613 5613 5614 5615 5615 5616 5617 5618 5618 5618 5618 5618 5618 5618 5619 5619 5619 5619 5619 5618 5618 5618 5617 5617 5616 5615 5615 5614 5613
5622 5608 5612 5619 5621 5620 5621 5620 5619 5619 5617 5616 5614 5614 5614 5612 5610 5608 5607 5606 5606 5606 5606 5607 5609 5609 5611 5612 5612 5612 5612 5611 5611 5612 5612 5612 5612 5612 5612 5612 5611 5611 5610 5610 5609 5608 5607 5606 5605
5612 5606 5611 5614 5617 5618 5617 5615 5615 5614 5612 5613 5612 5608 5607 5605 5603 5602 5600 5600 5599 5599 5599 5601 5602 5604 5605 5605 5606 5605 5605 5604 5604 5605 5606 5605 5605 5605 5605 5605 5604 5604 5603 5603 5602 5601 5599 5598 5596
5603 5603 5607 5609 5612 5613 5612 5610 5607 5608 5610 5612 5611 5607 5603 5600 5598 5596 5594 5593 5593 5593 5594 5595 5596 5598 5598 5599 5599 5599 5599 5598 5598 5599 5599 5599 5598 5598 5597 5597 5597 5597 5596 5595 5594 5593 5591 5590 5588
5596 5596 5600 5602 5605 5605 5605 5602 5601 5601 5603 5605 5603 5600 5598 5595 5593 5590 5589 5588 5587 5587 5588 5589 5590 5592 5592 5593 5593 5594 5593 5592 5592 5592 5592 5592 5591 5591 5590 5589 5589 5589 5588 5587 5586 5585 5583 5581 5580
5591 5590 5593 5597 5599 5600 5598 5595 5595 5595 5597 5597 5596 5593 5591 5589 5587 5585 5584 5582 5581 5582 5582 5584 5585 5585 5586 5587 5587 5588 5587 5587 5586 5585 5585 5584 5584 5584 5583 5582 5582 5581 5581 5580 5578 5577 5575 5573 5571
5589 5585 5587 5591 5593 5594 5594 5591 5589 5592 5591 5590 5589 5587 5585 5583 5581 5579 5578 5578 5577 5577 5577 5578 5580 5580 5581 5581 5581 5581 5581 5580 5579 5578 5578 5578 5577 5576 5575 5574 5574 5573 5572 5571 5570 5568 5566 5564 5562
5586 5581 5580 5586 5588 5588 5587 5586 5589 5587 5586 5584 5582 5580 5579 5577 5575 5574 5573 5573 5573 5572 5572 5573 5574 5574 5575 5575 5574 5575 5575 5574 5572 5571 5571 5571 5570 5569 5568 5567 5566 5565 5564 5563 5562 5561 5558 5555 5552
5578 5575 5577 5580 5583 5582 5581 5580 5584 5582 5580 5579 5577 5575 5574 5572 5571 5571 5570 5569 5568 5568 5568 5568 5569 5569 5569 5569 5569 5569 5568 5567 5565 5564 5563 5563 5562 5561 5560 5559 5558 5557 5556 5555 5553 5551 5549 5545 5543
5575 5573 5573 5574 5576 5576 5574 5574 5579 5576 5576 5574 5572 5571 5569 5569 5569 5568 5566 5565 5564 5564 5564 5564 5564 5564 5564 5563 5563 5562 5561 5559 5558 5557 5556 5555 5554 5553 5552 5551 5550 5549 5547 5546 5544 5542 5539 5536 5534
5574 5571 5569 5570 5572 5570 5569 5570 5574 5573 5570 5569 5568 5567 5566 5566 5566 5565 5563 5562 5560 5559 5560 5560 5560 5559 5558 5557 5556 5554 5553 5552 5551 5550 5548 5547 5546 5545 5544 5542 5541 5539 5538 5537 5535 5532 5528 5525 5523
5569 5567 5564 5563 5566 5565 5563 5565 5570 5570 5570 5568 5568 5566 5565 5563 5562 5561 5560 5558 5557 5556 5556 5556 5556 5555 5553 5552 5551 5549 5548 5545 5544 5542 5540 5539 5537 5536 5535 5534 5532 5531 5529 5527 5525 5523 5519 5515 5513
5561 5561 5559 5558 5557 5560 5560 5564 5569 5572 5570 5568 5567 5566 5564 5563 5561 5559 5558 5556 5554 5553 5553 5553 5551 5549 5548 5546 5545 5543 5540 5538 5536 5534 5532 5530 5529 5528 5527 5525 5524 5522 5520 5518 5516 5514 5512 5508 5503
5559 5557 5556 5554 5552 5549 5554 5551 5564 5566 5566 5568 5566 5562 5561 5561 5559 5557 5556 5553 5552 5551 5549 5548 5545 5544 5542 5540 5538 5536 5534 5531 5529 5527 5525 5523 5521 5519 5518 5517 5515 5513 5511 5510 5508 5505 5502 5499 5495
5554 5554 5553 5552 5550 5545 5547 5546 5556 5561 5566 5568 5567 5563 5560 5559 5557 5555 5553 5552 5550 5548 5545 5542 5540 5538 5536 5535 5532 5530 5528 5525 5522 5520 5517 5515 5513 5511 5509 5508 5507 5505 5503 5501 5499 5496 5493 5490 5486
5550 5551 5549 5540 5537 5543 5548 5546 5556 5558 5569 5572 5568 5563 5560 5558 5554 5551 5549 5547 5545 5543 5540 5537 5535 5533 5531 5529 5527 5524 5522 5519 5515 5513 5510 5508 5506 5504 5502 5501 5499 5498 5495 5493 5490 5487 5484 5481 5477
5548 5544 5533 5532 5522 5535 5544 5545 5555 5570 5571 5571 5569 5563 5559 5555 5551 5547 5545 5542 5539 5537 5535 5532 5530 5528 5525 5523 5521 5518 5516 5513 5509 5506 5503 5500 5498 5496 5495 5494 5492 5490 5488 5485 5482 5478 5475 5472 5467
5545 5546 5536 5536 5531 5532 5537 5542 5563 5572 5571 5568 5565 5562 5557 5553 5548 5545 5543 5540 5536 5533 5530 5527 5525 5522 5520 5517 5515 5513 5510 5506 5504 5500 5497 5494 5493 5491 5490 5488 5485 5482 5480 5477 5473 5469 5466 5462 5457
5543 5535 5537 5523 5509 5516 5533 5542 5560 5569 5568 5565 5561 5558 5554 5550 5547 5544 5540 5537 5533 5530 5527 5524 5521 5517 5514 5512 5510 5507 5504 5501 5498 5495 5491 5488 5486 5485 5483 5481 5478 5475 5471 5468 5464 5460 5456 5452 5448
5536 5532 5521 5516 5520 5525 5537 5544 5555 5568 5564 5561 5557 5554 5552 5548 5544 5541 5537 5533 5530 5527 5523 5519 5516 5513 5510 5507 5505 5502 5499 5496 5493 5489 5485 5482 5480 5478 5475 5473 5471 5467 5464 5459 5456 5452 5448 5443 5439
5530 5528 5522 5511 5512 5519 5525 5550 5566 5568 5566 5560 5556 5553 5550 5545 5542 5538 5534 5530 5525 5521 5518 5514 5511 5508 5505 5502 5499 5496 5493 5490 5486 5483 5480 5477 5474 5471 5468 5465 5462 5459 5455 5452 5447 5443 5439 5435 5431
5525 5528 5522 5522 5513 5509 5520 5547 5570 5565 5562 5557 5553 5550 5546 5543 5539 5534 5530 5526 5521 5517 5513 5510 5507 5504 5501 5498 5494 5491 5487 5483 5480 5477 5473 5470 5467 5464 5461 5458 5454 5451 5447 5443 5439 5435 5431 5427 5422